Regional Weather Roundup
Issued by NWS

Home | Current Version | Previous Version | Graphics & Text | Print | Product List | Glossary On
Versions: 1 2 3 4 5 6 7 8 9 10 11 12 13 14 15 16 17 18 19 20 21 22 23 24 25 26 27 28 29 30 31 32 33 34 35 36 37 38 39 40 41 42 43 44 45 46 47 48 49
000
ASUS45 KCYS 241010
RWRWY

WYOMING REGIONAL WEATHER ROUNDUP
NATIONAL WEATHER SERVICE CHEYENNE WY
300 AM MST WED DEC 24 2014

NOTE:  "FAIR" INDICATES FEW OR NO CLOUDS BELOW 12,000 FEET
WITH NO SIGNIFICANT WEATHER AND/OR OBSTRUCTIONS TO VISIBILITY.

WYZ001-241100-
YELLOWSTONE NATIONAL PARK

CITY           SKY/WX    TMP DP  RH WIND       PRES   REMARKS
LK YELLOWSTONE   N/A     16  12  84 VRB3      30.07F
W YELLOWSTONE  NOT AVBL

$$
WYZ002>013-054>058-071-098>099-241100-
NORTHERN WYOMING

CITY           SKY/WX    TMP DP  RH WIND       PRES   REMARKS
JACKSON        FAIR       9   7  92 N12       30.12F WCI  -6
CODY           FAIR      36  19  51 W23G33    29.87F WCI  24
GREYBULL       FAIR      15  11  83 SE6       29.98F WCI   6
WORLAND        FAIR       2  -1  88 SW7       29.99S WCI -11
SHERIDAN       FAIR      20  13  74 N6        29.80F WCI  12
BUFFALO        FAIR      28   7  41 S6        29.82F WCI  22
GILLETTE       FAIR      28  11  48 SW10      29.83F WCI  19
HULETT           N/A    N/A N/A N/A MISG        N/A
NEWCASTLE      FAIR      12  10  92 CALM      29.93F

$$
WYZ014>020-022>026-101>103-241100-
CENTRAL WYOMING

CITY           SKY/WX    TMP DP  RH WIND       PRES   REMARKS
BIG PINEY      FAIR       5   2  87 W5        30.11S WCI  -4
PINEDALE       FAIR       3   0  85 CALM      30.10R
DUBOIS         NOT AVBL
LANDER         FAIR      15   5  64 NW9       29.95F WCI   3
RIVERTON       FAIR      16   4  59 W10       29.96F WCI   4
CASPER         FAIR      22  10  60 SW21G32   29.95F WCI   6
DOUGLAS        FAIR      17   8  67 CALM      29.94F

$$
WYZ021-027>030-104>119-241100-
SOUTHERN WYOMING

CITY           SKY/WX    TMP DP  RH WIND       PRES   REMARKS
EVANSTON       FAIR      14  10  84 SW15      30.16F WCI  -1
FORT BRIDGER   FAIR      22   9  56 W14       30.16F WCI   9
ROCK SPRINGS   FAIR      18   9  68 W20       30.11F WCI   2
DIXON          FAIR       4   0  81 E7        30.22S WCI  -8
RAWLINS        FAIR      17   8  67 W26G35    30.04F WCI  -2
SARATOGA       FAIR      12   3  67 S9        30.12S WCI   0
LARAMIE        FAIR      11   2  67 S8        29.97F WCI  -1
CHEYENNE       FAIR      15   4  61 W7        29.95F WCI   5
TORRINGTON     FAIR      11   7  84 E5        29.98F WCI   3
PINE BLUFFS    FAIR      10   5  79 CALM      29.98F

$$


USA.gov is the U.S. government's official web portal to all federal, state and local government web resources and services.